Regional Weather Roundup
Issued by NWS

Home | Current Version | Previous Version | Graphics & Text | Print | Product List | Glossary On
Versions: 1 2 3 4 5 6 7 8 9 10 11 12 13 14 15 16 17 18 19 20 21 22 23 24 25 26 27 28 29 30 31 32 33 34 35 36 37 38 39 40 41 42 43 44 45 46 47 48 49 50
000
ASUS45 KBOU 181610
RWRCO

WEATHER ROUNDUP FOR COLORADO
NATIONAL WEATHER SERVICE DENVER/BOULDER CO
900 AM MST SUN FEB 18 2018

NOTE: "FAIR" INDICATES FEW OR NO CLOUDS BELOW 12000 FEET WITH NO
SIGNIFICANT WEATHER AND/OR OBSTRUCTIONS TO VISIBILITY.

COZ001>005-013-030-031-181700-
...NORTHWEST COLORADO...

CITY           SKY/WX    TMP DP  RH WIND       PRES   REMARKS
CRAIG          FAIR      42  17  36 SW18      29.64F
HAYDEN         FAIR      37  12  35 NE9       29.67F
MEEKER         FAIR      43  17  35 SW10      29.68F
RANGELY        FAIR      35  21  55 E5        29.66F WCI  31
RABBIT EARS PA PTSUNNY   27  14  59 SW9G24    29.72F WCI  17
STEAMBOAT SPGS FAIR      23  10  58 CALM      29.67F
WALDEN         FAIR      34  12  40 SW26      29.63F WCI  21
$$

COZ006>008-011-181700-
...WEST CENTRAL VALLEYS...

CITY           SKY/WX    TMP DP  RH WIND       PRES   REMARKS
GRAND JUNCTION FAIR      40  22  48 SE3       29.76F
MONTROSE       FAIR      46  19  34 S12       29.84F
EAGLE          FAIR      44  15  31 VRB5      29.74F
RIFLE          FAIR      27  20  75 CALM      29.76F
DELTA          FAIR      44  19  37 NE7       29.82F
NUCLA          FAIR      46  21  36 SW8       29.90F
$$

COZ017>023-064>068-181700-
...SOUTHWEST COLORADO...

CITY           SKY/WX    TMP DP  RH WIND       PRES   REMARKS
DURANGO        FAIR      30  21  69 CALM      29.98F
CORTEZ         FAIR      37  24  59 E3        29.94F
PAGOSA SPRINGS FAIR      29  16  56 CALM      29.99F
TELLURIDE      FAIR      36  13  38 E6        29.95S
WOLF CREEK PAS PTSUNNY   18  14  86 S26G36    29.98F WCI  -1
$$

COZ009-010-012-014-032>034-037-058>063-181700-
...CENTRAL COLORADO...

CITY           SKY/WX    TMP DP  RH WIND       PRES   REMARKS
ASPEN          FAIR      32  13  45 CALM      29.76F
BUENA VISTA    FAIR      41   2  19 E14G24    29.76F
COPPER MTN     LGT SNOW  28   1  31 SW24G38   29.79F WCI  14
BERTHOUD PASS  FAIR      21  10  63 W54G85    29.63S WCI  -2
COTTONWOOD PAS FAIR      39   0  19 W17G37    29.75F
GUNNISON       FAIR      20  11  68 CALM      29.91F
GRANBY         FAIR      35  13  40 W21       29.71F WCI  24
KREMMLING      FAIR      43  14  31 W21G33    29.71F
LEADVILLE      FAIR      33   1  25 W16G28    29.76F WCI  23
MONARCH PASS   FAIR      19   1  45 W41G49    29.93F WCI  -2
SALIDA         FAIR      43   5  20 SW14G22   29.86F
SUNLIGHT       FAIR      21  14  73 SW20G37   29.81  WCI   6
WILKERSON PASS FAIR      27  -4  26 SW24G36   29.75S WCI  12
$$

COZ069>075-181700-
...SAN LUIS VALLEY/SANGRE DE CRISTO MOUNTAINS...

CITY           SKY/WX    TMP DP  RH WIND       PRES   REMARKS
ALAMOSA        FAIR      36  21  54 S20       29.86F
DEL NORTE      FAIR      40  15  36 W18G24    29.86F
LA VETA PASS   FAIR      27  19  74 S23G47    29.93S WCI  12
SAGUACHE       FAIR      30   9  40 NW10      29.86F WCI  21
$$

COZ035-036-038>040-181700-
...NORTHERN COLORADO FRONT RANGE...

CITY           SKY/WX    TMP DP  RH WIND       PRES   REMARKS
DENVER INTL AP PTSUNNY   54   9  16 SW14      29.54S
AURORA         PTSUNNY   53   7  15 SW15      29.55F
FRONT RANGE AP PTSUNNY   52  12  20 S13G18    29.56S
ERIE MUNI ARPT FAIR      57   2  11 W17G23    29.57S
BOULDER MUN AP FAIR      55   9  15 SW24G33   29.49F
CENTENNIAL     PTSUNNY   52   7  16 S10G18    29.56F
BROOMFIELD     PTSUNNY   54   9  16 NE6       29.54R
FORT COLLINS   FAIR      58  12  16 W7        29.50R
LONGMONT       NOT AVBL
$$

COZ041-046-047-076>085-087-088-181700-
...PIKES PEAK/PALMER DIVIDE AND SOUTHERN FOOTHILLS...

CITY           SKY/WX    TMP DP  RH WIND       PRES   REMARKS
COLO. SPRINGS  PTSUNNY   48  10  21 E10       29.63F
A. F. ACADEMY  FAIR      49  -1  12 SW8       29.62S
SCHRIEVER AFB  NOT AVBL
CHEYENNE MTN   FAIR      47  -1  14 SE5       29.58S
ELLICOTT         N/A    N/A N/A N/A SW28G37   29.63F
FALCON         FAIR      47  -1  13 S12       29.66S
FORT CARSON    FAIR      50   4  15 SW12      29.62F
LIMON          FAIR      49   9  19 SW15G24   29.61F
MONUMENT HILL  FAIR      46   3  17 SW35G46   29.61R
CANON CITY     SUNNY     46  12  25 NW10      29.66F
WALSENBURG     NOT AVBL
TRINIDAD       FAIR      54  11  18 SW23G29   29.71F
$$

COZ042>045-048>051-090-091-181700-
...NORTHEAST COLORADO...

CITY           SKY/WX    TMP DP  RH WIND       PRES   REMARKS
GREELEY ARPT   FAIR      55  17  22 SE14      29.49F
AKRON          FAIR      54  14  20 SW20G29   29.54F
BURLINGTON     FAIR      46  20  35 SW20      29.60F
WRAY           FAIR      50  19  29 SW15      29.53F
YUMA           NOT AVBL
STERLING       FAIR      43  23  45 SW7       29.53F
HOLYOKE        FAIR      41  28  60 W7        29.53F
FORT MORGAN    FAIR      54  11  18 SW8       29.54F
$$

COZ086-089-092>099-181700-
...SOUTHEAST COLORADO...

CITY           SKY/WX    TMP DP  RH WIND       PRES   REMARKS
PUEBLO         FAIR      41  29  62 CALM      29.65F
LA JUNTA       FAIR      56  14  19 SW17      29.66F
LAMAR          FAIR      55  17  22 SW16      29.62F
SPRINGFIELD      N/A     50  21  32 SW22G29   29.70R
$$



USA.gov is the U.S. government's official web portal to all federal, state and local government web resources and services.